Weather History for Stanley, ID

Change the Weather History Date:

Tuesday, December 24, 2013

  Actual Average Record
Temperature  
Mean Temperature 15 °F 14 °F  
Max Temperature 33 °F 25 °F 54 °F (1919)
Min Temperature -4 °F 3 °F -53 °F (1983)
Degree Days  
Heating Degree Days 50 51  
Month to date heating degree days 1281 1206  
Since 1 July heating degree days 4070 4303  
Cooling Degree Days 0 0  
Month to date cooling degree days 0 0  
Year to date cooling degree days 19 3  
Moisture  
Dew Point 7 °F    
Average Humidity 74    
Maximum Humidity 92    
Minimum Humidity 55    
Precipitation  
Precipitation 0.03 in 0.04 in 0.72 in (1964)
Month to date precipitation 1.47 0.97  
Year to date precipitation 14.06 16.76  
Sea Level Pressure  
Sea Level Pressure 30.47 in    
Wind  
Wind Speed 3 mph (South)    
Max Wind Speed 14 mph    
Max Gust Speed 23 mph    
T = Trace of Precipitation, MM = Missing Value Source: NWS Daily Summary

Daily Weather History Graph

Daily Weather History Graph

Search for Another Location

Airport:

Trip Planner

Search our weather history database for the weather conditions in past years. The results will help you decide how hot, cold, wet, or windy it might be!

Date:

Astronomy

Dec. 24, 2013 Rise Set
Actual Time 8:13 AM MST 5:05 PM MST
Civil Twilight 7:40 AM MST 5:39 PM MST
Nautical Twilight 7:03 AM MST 6:15 PM MST
Astronomical Twilight 6:28 AM MST 6:50 PM MST
Moon No Moon Rise 11:55 AM MST (12/24)
Length of Visible Light 9h 58m
Length of Day
8h 52m
Waning Gibbous, 58% of the Moon is Illuminated
Dec 24
Waning Gibbous
Dec 25
Last Quarter
Jan 1
New
Jan 7
First Quarter
Jan 15
Full

Hourly Weather History & Observations

Time (MST) Temp. Windchill Dew Point Humidity Pressure Visibility Wind Dir Wind Speed Gust Speed Precip Events Conditions
12:51 AM 28.9 °F - 27.0 °F 92% 30.15 in - Calm Calm - 0.03 in   Unknown
1:51 AM 27.0 °F 19.5 °F 25.0 °F 92% 30.18 in - NNW 6.9 mph - N/A   Unknown
2:51 AM 25.0 °F 13.1 °F 12.9 °F 60% 30.23 in - NNW 13.8 mph 19.6 mph N/A   Unknown
3:51 AM 19.9 °F 14.9 °F 8.1 °F 60% 30.28 in - WNW 3.5 mph - N/A   Unknown
4:51 AM 18.0 °F - 8.1 °F 65% 30.32 in - Calm Calm - N/A   Unknown
5:51 AM 10.0 °F - 6.1 °F 84% 30.39 in - Calm Calm - N/A   Unknown
6:51 AM 9.0 °F 2.4 °F 5.0 °F 84% 30.40 in - SSW 3.5 mph - N/A   Unknown
7:51 AM 3.9 °F - 1.9 °F 91% 30.45 in - Calm Calm - N/A   Unknown
8:51 AM 3.9 °F -3.4 °F 1.0 °F 88% 30.48 in - South 3.5 mph - N/A   Unknown
9:51 AM 8.1 °F - 3.0 °F 80% 30.48 in - Calm Calm - N/A   Unknown
10:51 AM 17.1 °F 11.7 °F 9.0 °F 71% 30.47 in - NE 3.5 mph - N/A   Unknown
11:51 AM 19.9 °F - 10.0 °F 65% 30.44 in - Calm Calm - N/A   Unknown
12:51 PM 19.9 °F - 10.0 °F 65% 30.45 in - Calm Calm - N/A   Unknown
1:51 PM 23.0 °F - 10.0 °F 58% 30.44 in - Calm Calm - N/A   Unknown
2:51 PM 25.0 °F - 10.9 °F 55% 30.44 in - Calm Calm - N/A   Unknown
3:51 PM 25.0 °F 20.7 °F 10.9 °F 55% 30.46 in - NW 3.5 mph - N/A   Unknown
4:51 PM 16.0 °F - 9.0 °F 74% 30.52 in - Calm Calm - N/A   Unknown
5:51 PM 9.0 °F 0.6 °F 6.1 °F 88% 30.60 in - South 4.6 mph - N/A   Unknown
6:51 PM 6.1 °F -2.8 °F 3.9 °F 91% 30.64 in - SSE 4.6 mph - N/A   Unknown
7:51 PM 6.1 °F -2.8 °F 3.9 °F 91% 30.68 in - SE 4.6 mph - N/A   Unknown
8:51 PM 3.0 °F -6.4 °F 1.0 °F 91% 30.70 in - SE 4.6 mph - N/A   Unknown
9:51 PM 3.0 °F -6.4 °F -0.0 °F 87% 30.69 in - SSE 4.6 mph - N/A   Unknown
10:51 PM -2.0 °F - -5.1 °F 87% 30.68 in - Calm Calm - N/A   Unknown
11:51 PM -2.9 °F - -6.0 °F 87% 30.68 in - Calm Calm - N/A   Unknown